Regional Weather Roundup
Issued by NWS Sterling, VA

Home | Current Version | Previous Version | Graphics & Text | Print | Product List | Glossary On
Versions: 1 2 3 4 5 6 7 8 9 10 11 12 13 14 15 16 17 18 19 20 21 22 23 24 25 26 27 28 29 30 31 32 33 34 35 36 37 38 39 40 41 42 43 44 45 46 47 48 49 50
000
ASUS41 KLWX 281710
RWRLWX

REGIONAL WEATHER ROUNDUP
NATIONAL WEATHER SERVICE BALTIMORE MD/WASHINGTON DC
100 PM EDT THU MAY 28 2015

Note: "FAIR" indicates few or no clouds below 12,000 feet
with no significant weather and/or obstructions to visibility.
 TC=TEMPERATURE CELSIUS

 * =Non NWS site. Station does not report precipitation (e.g. rain,
    snow, etc.), thunder, or fog.

DCZ001-MDZ009-015-VAZ040>042-051-053>054-281800-
WASHINGTON METRO

CITY           SKY/WX    TMP DP  RH WIND       PRES   REMARKS
WASHINGTON NAT CLOUDY    90  62  39 N7        30.18F HX  90
DULLES         PTSUNNY   85  64  49 W3        30.19F
ANDREWS AFB    MOSUNNY   86  67  52 VRB2      30.18F
FT BELVOIR     MOSUNNY   86  67  53 VRB2      30.18F
QUANTICO       PTSUNNY   79  69  71 S7        30.20F
COLLEGE PARK*  MOSUNNY   86  63  45 CALM      30.17F
LEESBURG*      FAIR      86  64  48 N3        30.20F
MANASSAS*      SUNNY     88  64  45 CALM      30.19F
GAITHERSBURG*  MOSUNNY   84  64  51 NW3       30.23S

$$

MDZ006>007-011-014-281800-
BALTIMORE METRO

CITY           SKY/WX    TMP DP  RH WIND       PRES   REMARKS
BWI AIRPORT    PTSUNNY   89  64  43 N6        30.17F HX  90
MD SCIENCE CTR   N/A     86  66  51 MISG      30.16F
MARTIN STATE   MOSUNNY   82  73  74 SE8       30.19S
ANNAPOLIS      MOSUNNY   77  70  79 SE9       30.18S
FORT MEADE*    SUNNY     86  63  45 CALM      30.19F

$$

MDZ012-015-019>023-281800-
MARYLAND EASTERN SHORE

CITY           SKY/WX    TMP DP  RH WIND       PRES   REMARKS
OCEAN CITY     PTSUNNY   70  63  78 S9        30.21S
SALISBURY      PTSUNNY   80  69  69 SW8       30.20S
BAY BRIDGE AP*   N/A    N/A N/A N/A CALM      30.18F
CAMBRIDGE*     MOSUNNY   81  68  65 SE6       30.19S
EASTON*        MOSUNNY   84  72  65 W5        30.22F

$$

MDZ017>025-281800-
SOUTHERN MARYLAND

CITY           SKY/WX    TMP DP  RH WIND       PRES   REMARKS
PATUXENT RIVER PTSUNNY   81  71  71 SE9       30.19S
ST INIGOES     MOSUNNY   83  70  64 S6        30.19S
LEONARDTOWN*   MOSUNNY   81  68  65 CALM      30.20F

$$

MDZ003>005-281800-
NORTH CENTRAL MARYLAND

CITY           SKY/WX    TMP DP  RH WIND       PRES   REMARKS
FREDERICK*     SUNNY     86  64  48 N3        30.21
HAGERSTOWN APT MOSUNNY   83  62  49 VRB7      30.20F
WESTMINSTER*   MOSUNNY   82  66  57 CALM      30.21S

$$

MDZ501>502-281800-
WESTERN MARYLAND

CITY           SKY/WX    TMP DP  RH WIND       PRES   REMARKS
OAKLAND*       MOSUNNY   72  66  83 SW3       30.32S
CUMBERLAND*    MOSUNNY   82  63  51 SE5       30.25S

$$

VAZ025>031-281800-
SHENANDOAH VALLEY

CITY           SKY/WX    TMP DP  RH WIND       PRES   REMARKS
WINCHESTER*    MOSUNNY   88  54  31 SW6       30.21F
FRONT ROYAL*   FAIR      82  63  51 CALM      30.20F
LURAY*         FAIR      88  61  40 CALM      30.21F
NEW MARKET*    FAIR      84  62  47 SE6       30.19F
STAUNTON*      MOSUNNY   85  59  40 SE3       30.25S
WAYNESBORO*    FAIR      80  63  55 E7        30.25S

$$

WVZ021-048>050-054>055-281800-
EASTERN WEST VIRGINIA PANHANDLE

CITY           SKY/WX    TMP DP  RH WIND       PRES   REMARKS
MARTINSBURG    MOSUNNY   84  63  49 N7        30.21F
PETERSBURG*    MOSUNNY   85  56  37 N3        30.22F

$$

VAZ036>039-050-281800-
CENTRAL FOOTHILLS

CITY           SKY/WX    TMP DP  RH WIND       PRES   REMARKS
CHARLOTTESVILL PTSUNNY   86  62  44 E5        30.20F
CULPEPER*      MOSUNNY   84  63  49 CALM      30.20S
ORANGE*        MOSUNNY   86  64  48 CALM      30.22S
GORDONSVILLE*  FAIR      83  67  57 NE3       30.20S
WARRENTON*     FAIR      87  67  51 NE3       30.19F HX  90

$$

VAZ055>057-281800-
NORTH AND CENTRAL PIEDMONT

CITY           SKY/WX    TMP DP  RH WIND       PRES   REMARKS
FREDERICKSBRG* PTSUNNY   87  65  49 E6        30.18F
STAFFORD*      PTSUNNY   86  64  48 CALM      30.23F

$$

NCZ024-NYZ072-PAZ021-071-VAZ022-071-281800-
OTHER REGIONAL OBSERVATIONS

CITY           SKY/WX    TMP DP  RH WIND       PRES   REMARKS
NEW YORK CITY  MOSUNNY   83  67  58 VRB3      30.17F
PHILADELPHIA   PTSUNNY   85  68  56 SW6       30.17S
PITTSBURGH     PTSUNNY   74  58  57 N8        30.27S
ROANOKE        MOSUNNY   86  61  42 E8        30.24F
RICHMOND       CLOUDY    86  68  54 W3        30.20F
RALEIGH        PTSUNNY   83  70  64 VRB6      30.23F

$$

ANZ530>537-281800-
MARINE OBSERVATIONS

STATION/POSITION TIME  TEMP    WIND        PRES
                       AIR SEA DIR/SP/G
                 (UTC) (F)     (DEG/KT/KT) (MB)
THOMAS PT LIGHT  1700   73 71  170/ 11/ 12 1022.5F
BALT KEY BRIDGE  1600   75     120/  9/ 11 1021.8F
COVE POINT       1600   71     160/ 11/ 12 1023.2S
LEWISETTA        1600   79 71              1022.2F
SOLOMONS ISLAND  1600      70                N/A
PINEY POINT      1600          130/  3/  4   N/A

$$



USA.gov is the U.S. government's official web portal to all federal, state and local government web resources and services.